Weather History for Rolla, MO

Change the Weather History Date:

Friday, June 14, 2013

  Actual Average Record
Temperature  
Mean Temperature 71 °F 72 °F  
Max Temperature 84 °F 82 °F 95 °F (1952)
Min Temperature 58 °F 62 °F 46 °F (1903)
Degree Days  
Heating Degree Days 0 0  
Month to date heating degree days 17 12  
Since 1 June heating degree days 17 12  
Since 1 July heating degree days 4957 4846  
Cooling Degree Days 6 7  
Month to date cooling degree days 47 84  
Year to date cooling degree days 154 191  
Since 1 June cooling degree days 47 84  
Growing Degree Days 21 (Base 50)    
Moisture  
Dew Point 62 °F    
Average Humidity 74    
Maximum Humidity 97    
Minimum Humidity 51    
Precipitation  
Precipitation 0.00 in 0.17 in 1.52 in (2001)
Month to date precipitation 0.94 2.28  
Year to date precipitation 22.24 19.09  
Sea Level Pressure  
Sea Level Pressure 30.01 in    
Wind  
Wind Speed 5 mph (ESE)    
Max Wind Speed 13 mph    
Max Gust Speed 17 mph    
Visibility 10 miles    
Events      
T = Trace of Precipitation, MM = Missing Value Source: NWS Daily Summary

Daily Weather History Graph

Daily Weather History Graph

Search for Another Location

Airport:

Trip Planner

Search our weather history database for the weather conditions in past years. The results will help you decide how hot, cold, wet, or windy it might be!

Date:

Astronomy

Jun. 14, 2013 Rise Set
Actual Time 5:43 AM CDT 8:31 PM CDT
Civil Twilight 5:12 AM CDT 9:02 PM CDT
Nautical Twilight 4:32 AM CDT 9:42 PM CDT
Astronomical Twilight 3:47 AM CDT 10:27 PM CDT
Moon 11:14 AM CDT (6/14) No Moon Set
Length of Visible Light 15h 50m
Length of Day
14h 47m
Waxing Crescent, 30% of the Moon is Illuminated
Jun 14
Waxing Crescent
Jun 16
First Quarter
Jun 23
Full
Jun 29
Last Quarter
Jul 8
New

Hourly Weather History & Observations

Time (CDT) Temp. Heat Index Dew Point Humidity Pressure Visibility Wind Dir Wind Speed Gust Speed Precip Events Conditions
12:53 AM 60.1 °F - 59.0 °F 96% 29.99 in 10.0 mi Calm Calm - N/A   Clear
1:53 AM 64.0 °F - 60.1 °F 87% 30.00 in 10.0 mi Calm Calm - N/A   Clear
2:53 AM 60.1 °F - 57.9 °F 93% 30.01 in 10.0 mi Calm Calm - N/A   Clear
3:53 AM 61.0 °F - 59.0 °F 93% 30.00 in 10.0 mi Calm Calm - N/A   Clear
4:53 AM 61.0 °F - 57.9 °F 90% 30.01 in 10.0 mi Calm Calm - N/A   Clear
5:53 AM 60.1 °F - 59.0 °F 96% 30.03 in 10.0 mi Calm Calm - N/A   Clear
6:53 AM 64.0 °F - 62.1 °F 93% 30.03 in 10.0 mi Calm Calm - N/A   Clear
7:53 AM 72.0 °F - 63.0 °F 73% 30.04 in 10.0 mi ESE 3.5 mph - N/A   Clear
8:53 AM 73.0 °F - 62.1 °F 68% 30.05 in 10.0 mi East 4.6 mph - N/A   Clear
9:53 AM 75.0 °F - 63.0 °F 66% 30.05 in 10.0 mi SE 5.8 mph - N/A   Clear
10:53 AM 77.0 °F - 61.0 °F 58% 30.03 in 10.0 mi SE 6.9 mph - N/A   Clear
11:53 AM 79.0 °F - 60.1 °F 52% 30.04 in 10.0 mi SE 4.6 mph - N/A   Clear
12:53 PM 80.1 °F 81.1 °F 61.0 °F 52% 30.03 in 10.0 mi SSE 5.8 mph - N/A   Clear
1:53 PM 81.0 °F 81.6 °F 60.1 °F 49% 30.03 in 10.0 mi SE 6.9 mph - N/A   Clear
2:53 PM 82.0 °F 83.0 °F 62.1 °F 51% 30.04 in 10.0 mi East 9.2 mph - N/A   Clear
3:53 PM 82.9 °F 84.0 °F 63.0 °F 51% 30.02 in 10.0 mi East 8.1 mph - N/A   Clear
4:53 PM 81.0 °F 82.2 °F 63.0 °F 54% 29.99 in 10.0 mi East 10.4 mph - N/A   Clear
5:53 PM 81.0 °F 81.9 °F 62.1 °F 52% 29.98 in 10.0 mi ESE 9.2 mph - N/A   Clear
6:53 PM 79.0 °F - 64.0 °F 60% 29.96 in 10.0 mi ESE 4.6 mph - N/A   Clear
7:53 PM 75.9 °F - 64.9 °F 69% 29.95 in 10.0 mi SE 4.6 mph - N/A   Clear
8:53 PM 72.0 °F - 63.0 °F 73% 29.96 in 10.0 mi SSE 4.6 mph - N/A   Clear
9:53 PM 72.0 °F - 63.0 °F 73% 30.00 in 10.0 mi SE 4.6 mph - N/A   Mostly Cloudy
10:53 PM 68.0 °F - 63.0 °F 84% 30.00 in 10.0 mi East 3.5 mph - N/A   Clear
11:53 PM 66.9 °F - 64.0 °F 90% 30.00 in 10.0 mi SE 4.6 mph - N/A   Clear